(206159) = 2002 TU185 = 2006 OB13

Discovered at Socorro on 2002-10-04 by LINEAR.

Orbit

Orbit type: Main Belt

Note: WebGL enabled browser required.

epoch2023-09-13.0
epoch JD2460200.5
perihelion date2023-09-12.71625
perihelion JD2460200.21625
argument of perihelion (°)323.82655
ascending node (°)319.55370
inclination (°)6.43329
eccentricity0.2198994
perihelion distance (AU)2.0739811
Tisserand w.r.t. Jupiter3.3
ΔV w.r.t. Earth (km/sec)9.3
semimajor axis (AU)2.6586073
mean anomaly (°)0.06451
mean daily motion (°/day)0.22736450
aphelion distance (AU)3.243
period (years)4.33
P-vector [x]0.23382372
P-vector [y]-0.86367628
P-vector [z]-0.44653080
Q-vector [x]0.96955808
Q-vector [y]0.17278973
Q-vector [z]0.17349595
absolute magnitude16.06
phase slope0.15
uncertainty0
referenceMPEC 2024-A34
observations used564
oppositions15
arc length (days)7591
first opposition used2002
last opposition used2023
residual rms (arc-secs)0.68
perturbers coarse indicatorM-v
perturbers precise indicator003Ek
first observation date used2002-10-04.0
last observation date used2023-07-17.0
computer nameMPCLINUX
JD of orbit computation2456937.229535
perihelion JD uncertainty (days)7.1890E-05
argument of perihelion uncertainty (°)4.3023E-05
ascending node uncertainty (°)4.1093E-05
inclination uncertainty (°)5.8584E-06
eccentricity uncertainty 5.9827E-08
perihelion distance uncertainty (AU)1.7522E-07
Minimum Orbit Intersection Distances (in AU)
for orbit epoch: 2460200.5, reference: E2024-A34
Mercury1.61555
Venus1.34711
Earth1.0611
Mars0.63775
Jupiter1.94299
Saturn5.83556
Uranus15.4178
Neptune26.8384

Observations

584 total observations over interval: 2002 10 04.25696 – 2023 07 17.099003
These data are available for download (format description).

Date (UT) J2000 RA J2000 Dec Magn Location Ref
2002 10 04.25696 00 21 58.87 +11 19 36.2 18.8   704 – Lincoln Laboratory ETS, New Mexico MPS 64135
2002 10 04.27265 00 21 57.89 +11 19 31.4 19.6   704 – Lincoln Laboratory ETS, New Mexico MPS 64135
2002 10 04.28829 00 21 57.03 +11 19 27.2 19.2   704 – Lincoln Laboratory ETS, New Mexico MPS 64135
2002 10 04.30395 00 21 56.15 +11 19 23.5 18.9   704 – Lincoln Laboratory ETS, New Mexico MPS 64135
2002 10 04.31969 00 21 55.23 +11 19 18.1 20.2   704 – Lincoln Laboratory ETS, New Mexico MPS 64135
2002 10 07.26043 00 19 14.64 +11 05 45.0 18.8 R 699 – Lowell Observatory-LONEOS MPS 64135
2002 10 07.28145 00 19 13.55 +11 05 38.7   699 – Lowell Observatory-LONEOS MPS 64135
2002 10 07.30245 00 19 12.38 +11 05 33.1   699 – Lowell Observatory-LONEOS MPS 64135
2002 10 07.32347 00 19 11.19 +11 05 27.0   699 – Lowell Observatory-LONEOS MPS 64135
2002 10 09.26910 00 17 27.94 +10 56 13.7 19.2   704 – Lincoln Laboratory ETS, New Mexico MPS 64135
2002 10 09.28467 00 17 27.09 +10 56 09.7 19.2   704 – Lincoln Laboratory ETS, New Mexico MPS 64135
2002 10 09.30017 00 17 26.27 +10 56 04.9 19.0   704 – Lincoln Laboratory ETS, New Mexico MPS 64135
2002 10 09.31600 00 17 25.41 +10 56 00.8 19.2   704 – Lincoln Laboratory ETS, New Mexico MPS 64135
2002 10 12.26551 00 14 54.82 +10 41 49.5 19.2   704 – Lincoln Laboratory ETS, New Mexico MPS 64135
2002 10 12.28210 00 14 53.95 +10 41 44.4 19.3   704 – Lincoln Laboratory ETS, New Mexico MPS 64135
2002 10 12.31529 00 14 52.35 +10 41 35.8 19.6   704 – Lincoln Laboratory ETS, New Mexico MPS 64135
2005 03 10.20805 10 42 47.05 +03 51 04.2 19.9 R 699 – Lowell Observatory-LONEOS MPS 175704
2005 03 10.22914 10 42 45.92 +03 51 09.7   699 – Lowell Observatory-LONEOS MPS 175704
2005 03 10.25023 10 42 44.53 +03 51 15.2   699 – Lowell Observatory-LONEOS MPS 175704
2005 03 10.27130 10 42 43.42 +03 51 20.8   699 – Lowell Observatory-LONEOS MPS 175704
2005 03 17.35814 10 36 22.84 +04 17 56.9 20.0 R 703 – Catalina Sky Survey MPS 175704
2005 03 17.36683 10 36 22.35 +04 17 59.2 19.2 R 703 – Catalina Sky Survey MPS 175704
2005 03 17.37741 10 36 21.79 +04 18 04.6 19.5 R 703 – Catalina Sky Survey MPS 175704
2005 03 17.38613 10 36 21.43 +04 18 04.9 20.3 R 703 – Catalina Sky Survey MPS 175704
2005 04 02.13177 10 24 55.52 +05 08 14.0 20.2 V 691 – Steward Observatory, Kitt Peak-Spacewatch MPS 178368
2005 04 02.14770 10 24 54.97 +05 08 16.5 20.2 V 691 – Steward Observatory, Kitt Peak-Spacewatch MPS 178368
2005 04 02.16346 10 24 54.40 +05 08 18.8 20.5 V 691 – Steward Observatory, Kitt Peak-Spacewatch MPS 178368
2006 04 26.77514 20 50 18.49 -22 30 27.7 19.8 V E12 – Siding Spring Survey MPS 178368
2006 04 26.78460 20 50 19.35 -22 30 23.5 20.0 V E12 – Siding Spring Survey MPS 178368
2006 04 26.79418 20 50 20.25 -22 30 19.2 20.2 V E12 – Siding Spring Survey MPS 178368
2006 04 26.80378 20 50 21.19 -22 30 15.4 20.0 V E12 – Siding Spring Survey MPS 178368
2006 05 25.68656 21 28 04.08 -19 25 02.4 19.3 V E12 – Siding Spring Survey MPS 178368
2006 05 25.69750 21 28 04.65 -19 24 58.7 19.8 V E12 – Siding Spring Survey MPS 178368
2006 05 25.70844 21 28 05.34 -19 24 55.3 20.0 V E12 – Siding Spring Survey MPS 178368
2006 05 25.71934 21 28 05.95 -19 24 51.5 19.4 V E12 – Siding Spring Survey MPS 178368
2006 07 21.27701 21 36 03.71 -16 24 03.5 18.1   704 – Lincoln Laboratory ETS, New Mexico MPS 175197
2006 07 21.28799 21 36 03.17 -16 24 01.4 18.3   704 – Lincoln Laboratory ETS, New Mexico MPS 175197
2006 07 21.29894 21 36 02.68 -16 24 02.6 18.3   704 – Lincoln Laboratory ETS, New Mexico MPS 175197
2006 07 21.30992 21 36 02.11 -16 24 01.4 18.1   704 – Lincoln Laboratory ETS, New Mexico MPS 175197
2006 07 21.32099 21 36 01.65 -16 24 01.0 18.1   704 – Lincoln Laboratory ETS, New Mexico MPS 175197
2006 07 25.35759 21 32 54.15 -16 22 20.9 18.0 R 644 – Palomar Mountain/NEAT MPS 175197
2006 07 25.37785 21 32 53.11 -16 22 20.6 18.1 R 644 – Palomar Mountain/NEAT MPS 175197
2006 07 25.39809 21 32 52.06 -16 22 20.1 18.2 R 644 – Palomar Mountain/NEAT MPS 175197
2006 08 12.27399 21 16 28.52 -16 19 07.5 17.9 R 644 – Palomar Mountain/NEAT MPS 175752
2006 08 12.29522 21 16 27.26 -16 19 07.4 18.1 R 644 – Palomar Mountain/NEAT MPS 175752
2006 08 12.31652 21 16 26.00 -16 19 07.0 18.2 R 644 – Palomar Mountain/NEAT MPS 175752
2006 08 14.23177 21 14 38.66 -16 18 32.4 18.2 R 644 – Palomar Mountain/NEAT MPS 176958
2006 08 14.25211 21 14 37.48 -16 18 32.0 18.1 R 644 – Palomar Mountain/NEAT MPS 176958
2006 08 14.27364 21 14 36.21 -16 18 31.8 18.1 R 644 – Palomar Mountain/NEAT MPS 176958
2006 08 15.28471 21 13 40.13 -16 18 10.2 18.0 R 644 – Palomar Mountain/NEAT MPS 176004
2006 08 15.30595 21 13 38.90 -16 18 09.9 18.2 R 644 – Palomar Mountain/NEAT MPS 176004
2006 08 15.33536 21 13 37.20 -16 18 09.1 18.2 R 644 – Palomar Mountain/NEAT MPS 176004
2006 08 20.23434 21 09 16.08 -16 15 46.5 18.5 R 644 – Palomar Mountain/NEAT MPS 176004
2006 08 20.25464 21 09 14.99 -16 15 45.6 18.4 R 644 – Palomar Mountain/NEAT MPS 176004
2006 08 20.27501 21 09 13.89 -16 15 45.0 18.3 R 644 – Palomar Mountain/NEAT MPS 176004
2006 08 28.14180 21 03 07.72 -16 09 09.1 18.3 R 699 – Lowell Observatory-LONEOS MPS 176958
2006 08 28.16008 21 03 06.87 -16 09 06.3   699 – Lowell Observatory-LONEOS MPS 176958
2006 08 28.17833 21 03 06.06 -16 09 06.4   699 – Lowell Observatory-LONEOS MPS 176958
2006 08 28.19657 21 03 05.25 -16 09 04.4   699 – Lowell Observatory-LONEOS MPS 176958
2006 08 28.20311 21 03 05.00 -16 09 04.7 18.4 V 703 – Catalina Sky Survey MPS 176958
2006 08 28.21059 21 03 04.64 -16 09 04.3 18.5 V 703 – Catalina Sky Survey MPS 176958
2006 08 28.21808 21 03 04.39 -16 09 03.9 18.4 V 703 – Catalina Sky Survey MPS 176958
2006 08 28.22556 21 03 03.99 -16 09 03.4 18.2 V 703 – Catalina Sky Survey MPS 176958
2006 08 29.18839 21 02 25.10 -16 07 57.2 18.5   704 – Lincoln Laboratory ETS, New Mexico MPS 176958
2006 08 29.19958 21 02 24.66 -16 07 56.4 18.3   704 – Lincoln Laboratory ETS, New Mexico MPS 176958
2006 08 29.21081 21 02 24.18 -16 07 55.7 19.2   704 – Lincoln Laboratory ETS, New Mexico MPS 176958
2006 08 29.23325 21 02 23.18 -16 07 54.1 18.3   704 – Lincoln Laboratory ETS, New Mexico MPS 176958
2006 09 27.11120 20 55 43.17 -15 03 58.5 19.6 V G96 – Mt. Lemmon Survey MPS 180914
2006 09 27.11733 20 55 43.24 -15 03 57.3 19.5 V G96 – Mt. Lemmon Survey MPS 180914
2006 09 27.12353 20 55 43.32 -15 03 56.2 19.7 V G96 – Mt. Lemmon Survey MPS 180914
2006 09 27.12978 20 55 43.35 -15 03 54.7 19.7 V G96 – Mt. Lemmon Survey MPS 180914
2006 11 18.07059 21 38 17.70 -10 34 06.8 20.0 V G96 – Mt. Lemmon Survey MPS 188545
2006 11 18.08086 21 38 18.45 -10 34 02.4 20.3 V G96 – Mt. Lemmon Survey MPS 188545
2006 11 18.09098 21 38 19.21 -10 33 58.1 20.3 V G96 – Mt. Lemmon Survey MPS 188545
2006 11 18.10120 21 38 19.96 -10 33 53.9 20.2 V G96 – Mt. Lemmon Survey MPS 188545
2007 12 16.37583 04 12 24.12 +29 51 43.0 20.0 V G96 – Mt. Lemmon Survey MPS 231742
2007 12 16.38309 04 12 23.68 +29 51 41.2 20.3 V G96 – Mt. Lemmon Survey MPS 231742
2007 12 16.38426 04 12 23.61 +29 51 40.4 20.8 V G96 – Mt. Lemmon Survey MPS 231742
2007 12 16.39139 04 12 23.22 +29 51 39.0 20.4 V G96 – Mt. Lemmon Survey MPS 231742
2007 12 16.39254 04 12 23.14 +29 51 38.5 20.4 V G96 – Mt. Lemmon Survey MPS 231742
2007 12 16.39965 04 12 22.75 +29 51 36.8 20.3 V G96 – Mt. Lemmon Survey MPS 231742
2007 12 16.40075 04 12 22.71 +29 51 36.8 20.6 V G96 – Mt. Lemmon Survey MPS 231742
2007 12 16.40801 04 12 22.28 +29 51 34.7 20.3 V G96 – Mt. Lemmon Survey MPS 231742
2008 12 29.36367 09 42 23.04 +15 19 47.8 21.7 V G96 – Mt. Lemmon Survey MPS 270065
2008 12 29.36987 09 42 22.93 +15 19 48.2 21.7 V G96 – Mt. Lemmon Survey MPS 270065
2008 12 29.37596 09 42 22.78 +15 19 48.7 20.9 V G96 – Mt. Lemmon Survey MPS 270065
2008 12 29.38220 09 42 22.68 +15 19 48.5 21.3 V G96 – Mt. Lemmon Survey MPS 270065
2009 01 15.40799 09 32 40.60 +15 47 03.0 20.3 V 691 – Steward Observatory, Kitt Peak-Spacewatch MPS 272345
2009 01 15.42611 09 32 39.76 +15 47 04.8 20.7 V 691 – Steward Observatory, Kitt Peak-Spacewatch MPS 272345
2009 01 15.44423 09 32 38.93 +15 47 07.7 20.7 V 691 – Steward Observatory, Kitt Peak-Spacewatch MPS 272345
